Location: Newark
(45.2500°N, 7.5833°E)
Time: 18:04:34
(UTC+00:00)

Tiros 1 despin weight - Pass Details

Date: 31 January 2020
Orbit: 594 x 642 km, 48.2° (Epoch: 27 February)

Event Time Altitude Azimuth Distance (km) Brightness Sun altitude
Rises 14:40:09 0° 288° (WNW) 2,897 ? 15.6°
Reaches altitude 10° 14:42:42 10° 276° (W) 1,996 ? 15.3°
Maximum altitude 14:46:36 27° 218° (SW) 1,199 ? 14.8°
Drops below altitude 10° 14:50:30 10° 161° (SSE) 2,010 ? 14.3°
Sets 14:53:05 0° 149° (SSE) 2,921 ? 14.0°
